Tracking 30918 objects as of 2-Jul-2025
HD Live streaming from Space Station
objects crossing your sky now

DELTA 1 DEB

Track DELTA 1 DEB now!
10-day predictions


NORAD ID: 7013
Int'l Code: 1973-086D
Perigee: 1,408.8 km
Apogee: 1,519.1 km
Inclination: 102.0 °
Period: 115.0 minutes
Semi major axis: 7834 km
RCS: 0.9452 m2 (medium)
Launch date: November 6, 1973
Source: United States (US)
Launch site: AIR FORCE WESTERN TEST RANGE (AFWTR)

Note: This is SATELLITE DEBRIS
Your satellite tracking list
SL-24 DEB
Track 1 satellite(s)




NASA's NSSDC Master Catalog

Two Line Element Set (TLE):
1 07013U 73086D   25182.89807369  .00000000  00000-0  29460-3 0  9997
2 07013 102.0140 186.4144 0070384  50.0800  11.4368 12.51835174358561
Source of the keplerian elements: AFSPC